Weather History for Gainesville, FL

Change the Weather History Date:

Sunday, September 30, 2012

  Actual Average Record
Temperature  
Mean Temperature 81 °F 75 °F  
Max Temperature 90 °F 85 °F 97 °F (1934)
Min Temperature 71 °F 66 °F 48 °F (1967)
Degree Days  
Heating Degree Days 0 0  
Month to date heating degree days 0 0  
Since 1 July heating degree days 0 0  
Cooling Degree Days 16 10  
Month to date cooling degree days 439 396  
Year to date cooling degree days 2697 2340  
Growing Degree Days 30 (Base 50)    
Moisture  
Dew Point 71 °F    
Average Humidity 73    
Maximum Humidity 94    
Minimum Humidity 52    
Precipitation  
Precipitation T in 0.12 in 5.16 in (1920)
Month to date precipitation 6.26 4.42  
Year to date precipitation 48.37 39.99  
Snow  
Snow 0.00 in 0.00 in 0.00 in ()
Month to date snowfall 0.0 0.0  
Since 1 July snowfall 0.0 0.0  
Since 1 September snowfall 0.0 0.0  
Snow Depth 0.00 in    
Sea Level Pressure  
Sea Level Pressure 29.85 in    
Wind  
Wind Speed 3 mph (South)    
Max Wind Speed 14 mph    
Max Gust Speed 17 mph    
Visibility 10 miles    
Events      
T = Trace of Precipitation, MM = Missing Value Source: NWS Daily Summary

Daily Weather History Graph

Daily Weather History Graph

Search for Another Location

Airport:

Trip Planner

Search our weather history database for the weather conditions in past years. The results will help you decide how hot, cold, wet, or windy it might be!

Date:

Astronomy

Sep. 30, 2012 Rise Set
Actual Time 7:22 AM EDT 7:15 PM EDT
Civil Twilight 6:58 AM EDT 7:39 PM EDT
Nautical Twilight 6:30 AM EDT 8:06 PM EDT
Astronomical Twilight 6:02 AM EDT 8:34 PM EDT
Moon 7:26 PM EDT (9/30) 7:45 AM EDT (9/30)
Length of Visible Light 12h 40m
Length of Day
11h 53m
Full, 100% of the Moon is Illuminated
Sep 30
Full
Oct 8
Last Quarter
Oct 15
New
Oct 21
First Quarter
Oct 29
Full

Hourly Weather History & Observations

Time (EDT) Temp. Heat Index Dew Point Humidity Pressure Visibility Wind Dir Wind Speed Gust Speed Precip Events Conditions
12:33 AM 75.2 °F - 71.6 °F 89% 29.93 in 10.0 mi Calm Calm - N/A   Mostly Cloudy
12:53 AM 73.9 °F - 72.0 °F 93% 29.91 in 10.0 mi Calm Calm - N/A   Mostly Cloudy
1:01 AM 75.2 °F - 71.6 °F 89% 29.92 in 10.0 mi Calm Calm - N/A   Overcast
1:11 AM 75.2 °F - 71.6 °F 89% 29.92 in 10.0 mi Calm Calm - N/A   Mostly Cloudy
1:53 AM 73.9 °F - 72.0 °F 93% 29.90 in 10.0 mi Calm Calm - 0.00 in   Partly Cloudy
2:53 AM 73.0 °F - 71.1 °F 93% 29.88 in 10.0 mi Calm Calm - N/A   Clear
3:53 AM 73.0 °F - 70.0 °F 90% 29.87 in 10.0 mi Calm Calm - N/A   Clear
4:53 AM 72.0 °F - 70.0 °F 93% 29.85 in 10.0 mi Calm Calm - N/A   Clear
5:53 AM 72.0 °F - 70.0 °F 93% 29.85 in 10.0 mi Calm Calm - N/A   Clear
6:53 AM 72.0 °F - 70.0 °F 93% 29.86 in 10.0 mi Calm Calm - N/A   Clear
7:53 AM 72.0 °F - 70.0 °F 93% 29.86 in 9.0 mi Calm Calm - N/A   Clear
8:53 AM 75.0 °F - 73.0 °F 94% 29.87 in 10.0 mi Calm Calm - N/A   Clear
9:53 AM 79.0 °F - 73.9 °F 84% 29.88 in 10.0 mi SE 4.6 mph - N/A   Clear
10:53 AM 82.0 °F 87.9 °F 73.9 °F 76% 29.88 in 10.0 mi Variable 3.5 mph - N/A   Clear
11:53 AM 86.0 °F 91.5 °F 71.1 °F 61% 29.86 in 10.0 mi SE 10.4 mph - N/A   Clear
12:53 PM 88.0 °F 92.9 °F 70.0 °F 55% 29.85 in 10.0 mi SSE 9.2 mph - N/A   Partly Cloudy
1:53 PM 88.0 °F 92.1 °F 69.1 °F 53% 29.83 in 10.0 mi South 10.4 mph 17.3 mph N/A   Mostly Cloudy
2:53 PM 89.1 °F 93.7 °F 69.1 °F 52% 29.81 in 10.0 mi SW 8.1 mph - N/A   Scattered Clouds
3:53 PM 88.0 °F 92.9 °F 70.0 °F 55% 29.79 in 10.0 mi SSW 5.8 mph - N/A   Scattered Clouds
4:53 PM 88.0 °F 92.1 °F 69.1 °F 53% 29.77 in 10.0 mi Variable 4.6 mph - N/A   Mostly Cloudy
5:53 PM 86.0 °F 89.4 °F 68.0 °F 55% 29.79 in 10.0 mi South 9.2 mph 17.3 mph N/A   Clear
6:53 PM 82.0 °F 85.5 °F 69.1 °F 65% 29.78 in 10.0 mi SSW 4.6 mph - N/A   Clear
8:53 PM 75.0 °F - 69.1 °F 82% 29.81 in 10.0 mi West 3.5 mph - N/A   Clear
10:53 PM 73.0 °F - 70.0 °F 90% 29.83 in 10.0 mi Calm Calm - N/A   Clear
11:53 PM 73.0 °F - 70.0 °F 90% 29.83 in 10.0 mi Calm Calm - N/A   Clear